User: anonymous   Login
Location: Unspecified
(0.0000°N, 0.0000°E)
Time: 17:00:51
(UTC+00:00)
Language:

Gonets-D1 - Orbit

View from above orbital plane
View from above orbital plane
View from above satellite
View from above satellite

Ground track
Ground track

The orbit data is extracted from the following two-line orbital elements,

1 24725U 97006A   19016.91407914 +.00000004 +00000-0 -36418-4 0  9995
2 24725 082.6077 196.0196 0009846 126.1806 234.0197 12.60669445008596
Epoch (UTC): 16 January 2019 21:56:16
Eccentricity: 0.0009846
inclination: 82.6077°
perigee height: 1412 km
apogee height: 1428 km
right ascension of ascending node: 196.0196°
argument of perigee: 126.1806°
revolutions per day: 12.60669445
mean anomaly at epoch: 234.0197°
orbit number at epoch: 859

The dashed part of the orbit path shows where the satellite is in the earth's shadow,  

DLR